Location: Unspecified
(0.0000°N, 0.0000°E)
Time: 10:28:51
(UTC+00:00)

FAST 1 (USA 222) - Pass Details

Date: 31 May 2024
Orbit: 613 x 632 km, 72.0° (Epoch: 13 June)

Event Time Altitude Azimuth Distance (km) Brightness Sun altitude
Rises 18:33:30 0° 11° (N) 2,879 ? -8.3°
Reaches altitude 10° 18:36:14 10° 28° (NNE) 1,981 ? -8.9°
Maximum altitude 18:39:30 20° 76° (ENE) 1,440 ? -9.6°
Enters shadow 18:41:58 13° 115° (ESE) 1,775 ? -10.2°
